This is the latest recevied weather packets stored in our database for station/object DK4MDA-13. If no packets are shown the sender has not sent any weather packets the latest 10 day(s).
| Time | Temp. | Humidity | Pressure | Rain* | Wind** | Luminosity | Snow |
|---|---|---|---|---|---|---|---|
| 1777811233 | 26.67° C | 30% | 1012 hPa | 0 mm | - | - | - |
| 1777810933 | 26.67° C | 30% | 1012 hPa | 0 mm | - | - | - |
| 1777810633 | 26.67° C | 30% | 1011.9 hPa | 0 mm | - | - | - |
| 1777810033 | 26.67° C | 33% | 1011.8 hPa | 0 mm | - | - | - |
| 1777809433 | 26.67° C | 35% | 1011.8 hPa | 0 mm | - | - | - |
| 1777809133 | 26.67° C | 35% | 1012 hPa | 0 mm | - | - | - |
| 1777808833 | 26.67° C | 35% | 1011.9 hPa | 0 mm | - | - | - |
| 1777808533 | 26.67° C | 36% | 1012.1 hPa | 0 mm | - | - | - |
| 1777808233 | 26.11° C | 35% | 1012.1 hPa | 0 mm | - | - | - |
| 1777807933 | 26.67° C | 35% | 1012.1 hPa | 0 mm | - | - | - |
| 1777807633 | 26.67° C | 34% | 1012.2 hPa | 0 mm | - | - | - |
| 1777807333 | 27.22° C | 33% | 1012.2 hPa | 0 mm | - | - | - |
| 1777807033 | 26.67° C | 33% | 1012.3 hPa | 0 mm | - | - | - |
| 1777806733 | 27.22° C | 33% | 1012.3 hPa | 0 mm | - | - | - |
| 1777806435 | 26.67° C | 31% | 1012.2 hPa | 0 mm | - | - | - |
| 1777806133 | 26.67° C | 30% | 1012.3 hPa | 0 mm | - | - | - |
| 1777805833 | 26.67° C | 31% | 1012.2 hPa | 0 mm | - | - | - |
| 1777805533 | 26.67° C | 30% | 1012.3 hPa | 0 mm | - | - | - |
| 1777805233 | 27.22° C | 30% | 1012.2 hPa | 0 mm | - | - | - |
| 1777804933 | 26.67° C | 31% | 1012.2 hPa | 0 mm | - | - | - |
| 1777804635 | 27.22° C | 29% | 1012.2 hPa | 0 mm | - | - | - |
| 1777804333 | 27.78° C | 29% | 1012.2 hPa | 0 mm | - | - | - |
| 1777804033 | 27.78° C | 30% | 1012.1 hPa | 0 mm | - | - | - |
| 1777803733 | 27.22° C | 31% | 1012.2 hPa | 0 mm | - | - | - |
| 1777803435 | 27.22° C | 34% | 1012.2 hPa | 0 mm | - | - | - |
* Rain latest hour (hover to see other rain measurements)
** Current wind speed in m/s (hover to see current wind gust speed)